This is the latest recevied weather packets stored in our database for station/object KC3BHK-2. If no packets are shown the sender has not sent any weather packets the latest 10 day(s).
| Time | Temp. | Humidity | Pressure | Rain* | Wind** | Luminosity | Snow |
|---|---|---|---|---|---|---|---|
| 1777590202 | 13.89° C | - | - | 0 mm | 4.02 m/s, 298° | - | - |
| 1777589895 | 13.33° C | - | - | 0 mm | 3.58 m/s, 291° | - | - |
| 1777589590 | 14.44° C | - | - | 0 mm | 10.28 m/s, 278° | - | - |
| 1777589285 | 14.44° C | - | - | 0 mm | 5.36 m/s, 330° | - | - |
| 1777588981 | 14.44° C | - | - | 0 mm | 6.26 m/s, 276° | - | - |
| 1777588676 | 15° C | - | - | 0 mm | 4.47 m/s, 301° | - | - |
| 1777588371 | 15.56° C | - | - | 0 mm | 6.26 m/s, 288° | - | - |
| 1777588063 | 16.67° C | - | - | 0 mm | 9.83 m/s, 284° | - | - |
| 1777587759 | 16.11° C | - | - | 0 mm | 2.68 m/s, 300° | - | - |
| 1777587454 | 16.67° C | - | - | 0 mm | 2.68 m/s, 323° | - | - |
| 1777587149 | 17.22° C | - | - | 0 mm | 4.47 m/s, 291° | - | - |
| 1777586845 | 17.78° C | - | - | 0 mm | 1.34 m/s, 23° | - | - |
| 1777586540 | 17.22° C | - | - | 0 mm | 1.34 m/s, 301° | - | - |
| 1777586232 | 16.11° C | - | - | 0 mm | 3.58 m/s, 256° | - | - |
| 1777585927 | 15.56° C | - | - | 0 mm | 2.68 m/s, 315° | - | - |
| 1777585317 | 18.89° C | - | - | 0 mm | 1.79 m/s, 294° | - | - |
| 1777585013 | 18.89° C | - | - | 0 mm | 4.02 m/s, 326° | - | - |
| 1777584708 | 17.78° C | - | - | 0 mm | 4.47 m/s, 285° | - | - |
| 1777584097 | 18.33° C | - | - | 0 mm | 9.39 m/s, 294° | - | - |
| 1777583792 | 18.33° C | - | - | 0 mm | 6.26 m/s, 274° | - | - |
| 1777583183 | 19.44° C | - | - | 0 mm | 2.68 m/s, 307° | - | - |
| 1777582878 | 20° C | - | - | 0 mm | 1.79 m/s, 281° | - | - |
| 1777582570 | 18.89° C | - | - | 0 mm | 3.13 m/s, 297° | - | - |
| 1777582266 | 18.33° C | - | - | 0 mm | 5.36 m/s, 283° | - | - |
| 1777581657 | 16.11° C | - | - | 0 mm | 6.71 m/s, 295° | - | - |
* Rain latest hour (hover to see other rain measurements)
** Current wind speed in m/s (hover to see current wind gust speed)